STARLINK-3817 (52367 NORAD) Tracking and Keplerian Element Data

This shows tracking and keplerian element data for the satellite.

Feedback or suggestion? Click here.




ElementValue
Catalog52367
NameSTARLINK-3817
Epoch Orbit130
Epoch Day167.08334491
Epoch Year2022
RAAN202.6723
Inclination53.2138
Eccentricity0.0002867
Argument of Perigee14.9998
Mean Anonmoly288.0421
Mean Motion15.73201748
Decay Rate0.00081599
L11 52367U 22045AN 22167.08334491 .00081599 00000+0 58006-3 0 9999
L22 52367 53.2138 202.6723 0002867 14.9998 288.0421 15.73201748 1309

Live tracking and technical data element details for STARLINK-3817 (NORAD 52367). STARLINK-3817 can be tracked NOW for your location showing map with azimuth and elevation plus other details from your city location.

Track the satellite on the map from your city or location and see movement details for azimuth, elevation, latitude, longitude, range, height, and movement on the map or in text.







IsCatalogInMostPopularTable: catalog: 52367, numindb: 3
Update: records affected: 1



GetName: 52367 STARLINK-3817

Hit Count: updated at: Sat, 25 Jun 2022 04:48:59 GMT